Lake Charles, LA

9:19 PM CDT on June 22, 2017 (GMT -0500)
Chennault International

Weather History for KCWF - January, 2013

Change the Weather History Date:

Thursday, January 24, 2013

  Actual Average Record
Temperature  
Mean Temperature 60 °F -  
Max Temperature 71 °F 60 °F 78 °F (2002)
Min Temperature 50 °F 46 °F 24 °F (2014)
Degree Days  
Heating Degree Days 4    
Growing Degree Days 10 (Base 50)    
Moisture  
Dew Point 54 °F    
Average Humidity 90    
Maximum Humidity 100    
Minimum Humidity 68    
Precipitation  
Precipitation 0.00 in - - ()
Sea Level Pressure  
Sea Level Pressure 30.26 in    
Wind  
Wind Speed 2 mph (South)    
Max Wind Speed 14 mph    
Max Gust Speed -    
Visibility 4 miles    
Events Fog    
Averages and records for this station are not official NWS values.
T = Trace of Precipitation, MM = Missing Value Source: NWS Daily Summary

Daily Weather History Graph

Daily Weather History Graph

Search for Another Location

Airport or City:

Trip Planner

Search our weather history database for the weather conditions in past years. The results will help you decide how hot, cold, wet, or windy it might be!

Date:

Astronomy

Jan. 24, 2013 Rise Set
Actual Time 7:07 AM CST 5:42 PM CST
Civil Twilight 6:41 AM CST 6:08 PM CST
Nautical Twilight 6:12 AM CST 6:37 PM CST
Astronomical Twilight 5:43 AM CST 7:05 PM CST
Moon 3:47 PM CST (1/24) 5:02 AM CST (1/24)
Length of Visible Light 11h 26m
Length of Day
10h 35m
Waxing Gibbous, 94% of the Moon is Illuminated
Jan 24
Waxing Gibbous
Jan 26
Full
Feb 3
Last Quarter
Feb 10
New
Feb 17
First Quarter

Hourly Weather History & Observations

Time (CST) Temp. Dew Point Humidity Pressure Visibility Wind Dir Wind Speed Gust Speed Precip Events Conditions
12:15 AM 53.4 °F 51.8 °F 94% 30.28 in 3.0 mi Calm Calm - N/A   Clear
12:35 AM 53.4 °F 52.0 °F 95% 30.29 in 1.5 mi Calm Calm - N/A   Mist
12:55 AM 52.9 °F 51.6 °F 95% 30.28 in 1.8 mi Calm Calm - N/A   Mist
1:15 AM 52.7 °F 51.3 °F 95% 30.28 in 0.5 mi Calm Calm - N/A Fog Fog
1:35 AM 52.9 °F 51.4 °F 95% 30.28 in 0.2 mi Calm Calm - N/A Fog Fog
1:55 AM 52.9 °F 51.4 °F 95% 30.28 in 0.2 mi Calm Calm - N/A Fog Fog
2:15 AM 52.2 °F 50.5 °F 94% 30.27 in 1.0 mi SE 3.5 mph - N/A   Mist
2:35 AM 52.2 °F 50.7 °F 95% 30.28 in 0.2 mi Calm Calm - N/A Fog Fog
2:55 AM 52.2 °F 50.9 °F 95% 30.27 in 0.5 mi Calm Calm - N/A Fog Fog
3:15 AM 51.4 °F 50.2 °F 95% 30.27 in 0.2 mi SE 3.5 mph - N/A Fog Fog
3:35 AM 51.8 °F 50.5 °F 95% 30.26 in 0.2 mi Calm Calm - N/A Fog Fog
3:55 AM 51.1 °F 50.0 °F 96% 30.26 in 0.2 mi Calm Calm - N/A Fog Fog
4:15 AM 51.1 °F 50.0 °F 96% 30.26 in 0.2 mi Calm Calm - N/A Fog Fog
4:35 AM 50.7 °F 49.5 °F 95% 30.26 in 0.2 mi Calm Calm - N/A Fog Fog
4:55 AM 51.3 °F 50.0 °F 95% 30.27 in 0.5 mi Calm Calm - N/A Fog Fog
5:15 AM 50.0 °F 48.9 °F 96% 30.28 in 0.2 mi Calm Calm - N/A Fog Fog
5:35 AM 50.7 °F 49.5 °F 95% 30.28 in 1.0 mi Calm Calm - N/A   Overcast
5:55 AM 51.1 °F 49.8 °F 95% 30.29 in 1.0 mi Calm Calm - N/A   Overcast
6:00 AM 51.8 °F 51.8 °F 100% 30.29 in 2.0 mi Calm Calm - N/A   Overcast
6:17 AM 51.8 °F 51.8 °F 100% 30.29 in 3.0 mi Calm Calm - N/A   Overcast
6:47 AM 53.6 °F 51.8 °F 94% 30.29 in 6.0 mi Calm Calm - N/A   Overcast
7:45 AM 55.4 °F 55.4 °F 100% 30.31 in 4.0 mi Calm Calm - N/A   Mostly Cloudy
8:50 AM 59.0 °F 57.2 °F 94% 30.32 in 5.0 mi Calm Calm - N/A   Overcast
9:45 AM 62.6 °F 60.8 °F 94% 30.33 in 10.0 mi South 3.5 mph - N/A   Overcast
10:50 AM 66.2 °F 60.8 °F 83% 30.33 in 10.0 mi SSW 8.1 mph - N/A   Overcast
11:45 AM 69.8 °F 60.8 °F 73% 30.31 in 10.0 mi SSW 11.5 mph - N/A   Overcast
12:46 PM 71.6 °F 60.8 °F 69% 30.28 in 10.0 mi SSW 12.7 mph - N/A   Overcast
1:50 PM 71.6 °F 60.8 °F 69% 30.25 in 10.0 mi SSW 13.8 mph - N/A   Scattered Clouds
2:50 PM 69.8 °F 60.8 °F 73% 30.23 in 10.0 mi SSW 11.5 mph - N/A   Overcast
3:51 PM 71.6 °F 60.8 °F 69% 30.23 in 10.0 mi South 12.7 mph - N/A   Mostly Cloudy
4:50 PM 69.8 °F 59.0 °F 68% 30.22 in 10.0 mi South 11.5 mph - N/A   Mostly Cloudy
5:50 PM 66.2 °F 59.0 °F 78% 30.23 in 10.0 mi South 8.1 mph - N/A   Overcast
6:50 PM 64.4 °F 60.8 °F 88% 30.24 in 10.0 mi SSE 6.9 mph - N/A   Overcast
7:50 PM 64.4 °F 57.2 °F 77% 30.24 in 10.0 mi SSE 5.8 mph - N/A   Overcast
8:50 PM 60.8 °F 57.2 °F 88% 30.23 in 10.0 mi South 8.1 mph - N/A   Scattered Clouds
9:50 PM 59.0 °F 55.4 °F 88% 30.22 in 10.0 mi SSE 5.8 mph - N/A   Clear
10:15 PM 57.6 °F 55.6 °F 93% 30.22 in 10.0 mi South 6.9 mph - N/A   Clear
10:35 PM 56.7 °F 54.7 °F 93% 30.22 in 7.0 mi SSE 5.8 mph - N/A   Clear
10:55 PM 55.8 °F 54.0 °F 94% 30.22 in 5.0 mi SSE 4.6 mph - N/A   Clear
11:15 PM 56.5 °F 54.9 °F 94% 30.22 in 3.0 mi SSE 4.6 mph - N/A   Clear
11:35 PM 56.1 °F 54.5 °F 94% 30.22 in 0.5 mi SSE 4.6 mph - N/A Fog Fog
11:55 PM 56.3 °F 54.9 °F 95% 30.22 in 0.2 mi SSE 3.5 mph - N/A Fog Fog